Simultaneous Nadir Overpasses (SNOs) Predictions

Prediction of SNOs between NOAA-19 and NPP Satellite Orbit:

Table of predicted SNOs for the next 14.0 days since TLE Epoch: 11/20/2015
Index Date (NOAA-19) Time (NOAA-19) Lat,Lon (NOAA-19) SZA (NOAA-19 ) Date (NPP) Time (NPP) Lat,Lon (NPP) SZA (NPP ) Distance(km) Time Diff (sec)
1 12/02/2015 21:45:14 81.04, 160.51 106.12 12/02/2015 21:46:27 81.04, 160.39 106.10 2.08 73
2 12/02/2015 22:36:18 -81.03, -32.04 73.90 12/02/2015 22:37:12 -81.03, -32.18 73.91 2.44 54
3 12/02/2015 23:27:16 81.03, 135.14 106.12 12/02/2015 23:27:57 81.04, 134.97 106.12 2.96 41
4 12/03/2015 00:18:21 -81.03, -57.79 73.86 12/03/2015 00:18:42 -81.03, -57.60 73.90 3.18 21
5 12/03/2015 01:09:18 81.03, 109.76 106.11 12/03/2015 01:09:26 81.03, 109.91 106.09 2.78 8
6 12/03/2015</
